Location: Burla
(50.9568°N, 10.4983°E)
Time: 22:13:29
(UTC+00:00)

Cosmos 676 Rocket - Pass Details

Date: 18 January 2026
Orbit: 750 x 779 km, 74.0° (Epoch: 18 February)

Event Time Altitude Azimuth Distance (km) Brightness Sun altitude
Rises 06:25:58 0° 196° (SSW) 3,192 7.3 -7.2°
Reaches altitude 10° 06:28:19 10° 195° (SSW) 2,269 6.6 -6.9°
Maximum altitude 06:33:26 74° 112° (ESE) 786 4.3 -6.1°
Drops below altitude 10° 06:38:36 10° 27° (NNE) 2,283 6.5 -5.4°
Sets 06:40:58 0° 26° (NNE) 3,213 7.2 -5.1°
